EW5649 Weather Reports


time (UTC)temp
F
wind
direction
speed
knots
gust
knots
rain 1hr
in
rain 24hr
in
rain mn
in
humidity
%
barometer
mb
20260504015017 75 45 0.9 1.7 0.00 0.00 0.00 46 1008.9
20260504014517 76 45 0.9 1.7 0.00 0.00 0.00 45 1009.0
20260504014017 76 0.0 1.7 0.00 0.00 0.00 46 1009.1
20260504013516 76 45 0.9 1.7 0.00 0.00 0.00 44 1009.1
20260504013016 77 45 0.9 0.9 0.00 0.00 0.00 44 1009.1
20260504012557 77 45 0.9 1.7 0.00 0.00 0.00 43 1009.1
20260504012016 78 45 0.9 1.7 0.00 0.00 0.00 41 1009.2
20260504011517 78 315 0.9 0.9 0.00 0.00 0.00 39 1009.2
20260504011057 79 45 0.9 1.7 0.00 0.00 0.00 40 1009.2
20260504010516 79 0.0 1.7 0.00 0.00 0.00 41 1009.2
20260504010017 80 0.0 1.7 0.00 0.00 0.00 37 1009.3
20260504005517 80 0.0 1.7 0.00 0.00 0.00 40 1009.3
20260504005016 81 315 0.9 1.7 0.00 0.00 0.00 40 1009.4
20260504004516 82 45 0.9 1.7 0.00 0.00 0.00 38 1009.4
20260504004016 83 315 0.9 1.7 0.00 0.00 0.00 37 1009.4
20260504003516 84 0.0 1.7 0.00 0.00 0.00 40 1009.5
20260504003016 84 180 0.9 6.1 0.00 0.00 0.00 36 1009.5
20260504002556 85 0.0 1.7 0.00 0.00 0.00 38 1009.5
20260504002016 85 225 0.9 4.3 0.00 0.00 0.00 37 1009.5
20260504001517 85 0.0 2.6 0.00 0.00 0.00 40 1009.5
20260504001016 85 113 0.9 3.5 0.00 0.00 0.00 37 1009.6
20260504000516 85 135 0.9 1.7 0.00 0.00 0.00 42 1009.6
20260504000016 85 113 0.9 2.6 0.00 0.00 0.00 42 1009.6
20260503235516 84 135 0.9 2.6 0.00 0.00 0.00 37 1009.6
20260503235016 84 113 0.9 2.6 0.00 0.00 0.00 36 1009.7
20260503234516 84 113 0.9 3.5 0.00 0.00 0.00 36 1009.8
20260503234016 84 113 0.9 2.6 0.00 0.00 0.00 35 1009.8
20260503233516 84 113 1.7 3.5 0.00 0.00 0.00 37 1009.9
20260503233016 84 135 0.9 2.6 0.00 0.00 0.00 37 1009.9
20260503232556 84 113 0.9 3.5 0.00 0.00 0.00 37 1010.0
20260503232056 85 113 1.7 2.6 0.00 0.00 0.00 38 1010.0
20260503231516 85 135 0.9 5.2 0.00 0.00 0.00 37 1010.1
20260503231016 85 135 0.9 4.3 0.00 0.00 0.00 36 1010.2
20260503230556 85 135 1.7 3.5 0.00 0.00 0.00 37 1010.3
20260503230056 85 113 0.9 3.5 0.00 0.00 0.00 37 1010.3
20260503225516 85 113 0.9 3.5 0.00 0.00 0.00 38 1010.4
20260503225016 85 135 0.9 2.6 0.00 0.00 0.00 42 1010.5
20260503224516 85 113 1.7 3.5 0.00 0.00 0.00 38 1010.5
20260503224016 85 113 0.9 3.5 0.00 0.00 0.00 38 1010.5
20260503223516 84 113 0.9 3.5 0.00 0.00 0.00 37 1010.6
20260503223017 84 113 1.7 3.5 0.00 0.00 0.00 38 1010.7
20260503222516 84 113 0.9 2.6 0.00 0.00 0.00 36 1010.8
20260503222016 83 113 0.9 3.5 0.00 0.00 0.00 38 1010.8
20260503221516 83 113 1.7 3.5 0.00 0.00 0.00 38 1010.8
20260503221016 82 113 0.9 4.3 0.00 0.00 0.00 41 1011.0
20260503220516 82 135 0.9 4.3 0.00 0.00 0.00 46 1011.1
20260503220016 81 135 1.7 5.2 0.00 0.00 0.00 43 1011.1
20260503215516 81 135 1.7 4.3 0.00 0.00 0.00 40 1011.2
20260503215016 81 135 1.7 6.1 0.00 0.00 0.00 40 1011.3
20260503214516 81 113 1.7 3.5 0.00 0.00 0.00 43 1011.3
20260503214016 81 225 1.7 4.3 0.00 0.00 0.00 44 1011.4
20260503213516 81 135 1.7 4.3 0.00 0.00 0.00 41 1011.4
20260503213015 81 135 1.7 5.2 0.00 0.00 0.00 45 1011.5
20260503212516 80 203 0.9 3.5 0.00 0.00 0.00 49 1011.6
20260503212015 80 135 1.7 7.8 0.00 0.00 0.00 41 1011.6
20260503211516 80 225 1.7 4.3 0.00 0.00 0.00 47 1011.6
20260503211016 80 225 1.7 6.1 0.00 0.00 0.00 44 1011.6
20260503210516 79 225 1.7 5.2 0.00 0.00 0.00 42 1011.6
20260503210056 79 135 1.7 3.5 0.00 0.00 0.00 45 1011.7
20260503205556 79 135 0.9 4.3 0.00 0.00 0.00 45 1011.8
20260503205016 78 113 1.7 4.3 0.00 0.00 0.00 44 1011.9
20260503204516 78 113 0.9 7.8 0.00 0.00 0.00 49 1011.9
20260503204016 78 203 1.7 7.8 0.00 0.00 0.00 48 1011.9
20260503203516 77 135 0.9 3.5 0.00 0.00 0.00 46 1012.0
20260503203016 77 225 1.7 5.2 0.00 0.00 0.00 46 1012.0
20260503202515 77 225 1.7 3.5 0.00 0.00 0.00 48 1012.1
20260503202016 77 225 0.9 5.2 0.00 0.00 0.00 47 1012.1
20260503201556 77 90 0.9 2.6 0.00 0.00 0.00 50 1012.2
20260503201015 76 113 0.9 3.5 0.00 0.00 0.00 51 1012.3
20260503200516 77 135 0.9 2.6 0.00 0.00 0.00 50 1012.4
20260503200016 77 225 0.9 3.5 0.00 0.00 0.00 47 1012.5
20260503195515 77 203 0.9 4.3 0.00 0.00 0.00 48 1012.6
20260503195016 78 113 0.9 2.6 0.00 0.00 0.00 48 1012.7
20260503194516 78 203 0.9 1.7 0.00 0.00 0.00 48 1012.7
20260503194015 77 113 0.9 4.3 0.00 0.00 0.00 49 1012.7
20260503193515 77 113 0.9 2.6 0.00 0.00 0.00 49 1012.9
20260503193056 77 180 0.9 3.5 0.00 0.00 0.00 49 1012.9
20260503192515 77 113 0.9 2.6 0.00 0.00 0.00 50 1013.0
20260503192015 76 113 0.9 2.6 0.00 0.00 0.00 50 1013.1
20260503191516 76 135 0.9 2.6 0.00 0.00 0.00 53 1013.2
20260503191016 76 135 0.9 4.3 0.00 0.00 0.00 49 1013.2
20260503190555 75 113 0.9 2.6 0.00 0.00 0.00 53 1013.1
20260503190015 76 225 0.9 2.6 0.00 0.00 0.00 48 1013.2
20260503185515 76 225 1.7 5.2 0.00 0.00 0.00 46 1013.2
20260503185056 77 113 0.9 1.7 0.00 0.00 0.00 50 1013.2
20260503184515 76 113 0.9 1.7 0.00 0.00 0.00 50 1013.3
20260503184016 76 113 0.9 3.5 0.00 0.00 0.00 54 1013.3
20260503183555 76 135 1.7 5.2 0.00 0.00 0.00 50 1013.3
20260503183015 76 225 0.9 4.3 0.00 0.00 0.00 57 1013.4
20260503182516 76 113 0.9 3.5 0.00 0.00 0.00 52 1013.4
20260503182015 75 135 0.9 3.5 0.00 0.00 0.00 55 1013.4
20260503181515 75 225 0.9 5.2 0.00 0.00 0.00 52 1013.5
20260503181015 75 158 1.7 7.0 0.00 0.00 0.00 51 1013.5
20260503180515 75 225 0.9 2.6 0.00 0.00 0.00 55 1013.5
20260503180015 74 113 0.9 1.7 0.00 0.00 0.00 57 1013.6
20260503175515 73 113 0.9 4.3 0.00 0.00 0.00 52 1013.6
20260503175015 73 225 0.9 3.5 0.00 0.00 0.00 54 1013.7
20260503174515 72 248 0.9 4.3 0.00 0.00 0.00 56 1013.7
20260503174015 72 135 0.9 1.7 0.00 0.00 0.00 57 1013.7
20260503173515 72 180 0.9 4.3 0.00 0.00 0.00 54 1013.8
20260503173015 72 225 0.9 2.6 0.00 0.00 0.00 55 1013.8
20260503172515 72 135 0.9 3.5 0.00 0.00 0.00 61 1013.8
20260503172015 71 203 0.9 1.7 0.00 0.00 0.00 60 1013.8
20260503171517 71 135 0.9 2.6 0.00 0.00 0.00 63 1013.8
20260503171018 71 135 0.9 2.6 0.00 0.00 0.00 63 1013.8
20260503170517 71 225 0.9 2.6 0.00 0.00 0.00 59 1013.8
20260503150557 56 0 0.9 1.7 0.00 0.00 0.00 83 1014.0
20260503131016 53 0 0.9 0.9 0.00 0.00 0.00 81 1013.6
20260503130516 53 0.0 0.9 0.00 0.00 0.00 81 1013.5
20260503110556 57 0 0.9 0.9 0.00 0.00 0.00 74 1014.2
20260503081517 61 45 0.9 1.7 0.00 0.00 0.00 64 1014.3
20260503081016 61 45 0.9 1.7 0.00 0.00 0.00 63 1014.3
20260503080516 61 45 0.9 1.7 0.00 0.00 0.00 63 1014.3
20260503072516 62 45 0.9 1.7 0.00 0.00 0.00 62 1014.2
20260503072016 63 45 0.9 0.9 0.00 0.00 0.00 64 1014.1
20260503071516 63 0.0 0.9 0.00 0.00 0.00 60 1014.1
20260503071016 63 45 0.9 1.7 0.00 0.00 0.00 64 1014.1
20260503070516 63 45 0.9 1.7 0.00 0.00 0.00 64 1014.1
20260503055055 67 68 0.9 3.5 0.00 0.00 0.00 51 1013.7
20260503054556 67 68 0.9 2.6 0.00 0.00 0.00 54 1013.6
20260503054016 67 45 0.9 2.6 0.00 0.00 0.00 52 1013.6
20260503053515 67 68 0.9 2.6 0.00 0.00 0.00 54 1013.5
20260503053015 67 45 0.9 6.1 0.00 0.00 0.00 51 1013.6
20260503052516 67 45 0.9 1.7 0.00 0.00 0.00 53 1013.6
20260503052016 67 45 0.9 2.6 0.00 0.00 0.00 54 1013.5
20260503051515 66 45 0.9 3.5 0.00 0.00 0.00 54 1013.6
20260503051017 66 45 0.9 1.7 0.00 0.00 0.00 53 1013.6
20260503050557 66 45 0.9 1.7 0.00 0.00 0.00 55 1013.6
20260503050017 66 45 0.9 1.7 0.00 0.00 0.00 55 1013.5
20260503045517 65 45 0.9 2.6 0.00 0.00 0.00 58 1013.5
20260503045017 65 45 0.9 1.7 0.00 0.00 0.00 56 1013.5
20260503044518 65 45 0.9 1.7 0.00 0.00 0.00 58 1013.4
20260503044017 65 45 0.9 1.7 0.00 0.00 0.00 58 1013.4
20260503043557 65 45 0.9 0.9 0.00 0.00 0.00 60 1013.3
20260503043057 65 0.0 0.9 0.00 0.00 0.00 58 1013.2
20260503042517 66 0.0 0.9 0.00 0.00 0.00 58 1013.2
20260503042015 66 45 0.9 0.9 0.00 0.00 0.00 59 1013.1
20260503041517 66 45 0.9 0.9 0.00 0.00 0.00 59 1013.1
20260503041017 66 45 0.9 0.9 0.00 0.00 0.00 58 1013.1
20260503040517 66 45 0.9 1.7 0.00 0.00 0.00 59 1012.9
20260503040017 66 0 0.9 0.9 0.00 0.00 0.00 62 1012.8
20260503035517 66 45 0.9 0.9 0.00 0.00 0.00 59 1012.8
20260503035017 66 0.0 1.7 0.00 0.00 0.00 59 1012.8
20260503034557 67 0.0 0.9 0.00 0.00 0.00 60 1012.6
20260503034057 67 0.0 1.7 0.00 0.00 0.00 59 1012.6
20260503033558 67 45 0.9 0.9 0.00 0.00 0.00 59 1012.5
20260503033018 67 0.0 0.9 0.00 0.00 0.00 60 1012.4
20260503032517 67 45 0.9 1.7 0.00 0.00 0.00 60 1012.4
20260503032017 67 45 0.9 1.7 0.00 0.00 0.00 60 1012.3
20260503031517 68 45 0.9 0.9 0.00 0.00 0.00 61 1012.3
20260503031058 68 45 0.9 1.7 0.00 0.00 0.00 62 1012.2
20260503030517 68 45 0.9 0.9 0.00 0.00 0.00 59 1012.2
20260503030017 68 45 0.9 1.7 0.00 0.00 0.00 62 1012.2
20260503025517 69 45 0.9 0.9 0.00 0.00 0.00 63 1012.1
20260503025017 69 0.0 0.9 0.00 0.00 0.00 64 1012.1
20260503024517 69 0.0 0.9 0.00 0.00 0.00 62 1012.0
20260503024057 70 45 0.9 0.9 0.00 0.00 0.00 59 1012.0
20260503023517 70 45 0.9 1.7 0.00 0.00 0.00 60 1012.0
20260503023017 70 0.0 0.9 0.00 0.00 0.00 61 1012.0
20260503022518 71 0.0 1.7 0.00 0.00 0.00 61 1012.0
20260503022057 71 45 0.9 0.9 0.00 0.00 0.00 61 1011.9
20260503021517 71 0.0 0.9 0.00 0.00 0.00 59 1011.9
20260503021017 72 0.0 0.9 0.00 0.00 0.00 58 1011.9
20260503020516 72 0.0 0.9 0.00 0.00 0.00 57 1012.0
20260503020016 72 0.0 0.9 0.00 0.00 0.00 57 1012.0
20260503015516 72 315 0.9 1.7 0.00 0.00 0.00 56 1011.9